Weather History for Taylorville, IL

Change the Weather History Date:

Saturday, November 12, 2011

  Actual Average (KSPI) Record (KSPI)
Temperature  
Mean Temperature 51 °F 45 °F  
Max Temperature 60 °F 54 °F 75 °F (1971)
Min Temperature 42 °F 36 °F 12 °F (1986)
Degree Days  
Heating Degree Days 14 20  
Month to date heating degree days 212  
Since 1 July heating degree days 622  
Cooling Degree Days 0 0  
Month to date cooling degree days 0  
Year to date cooling degree days 1121  
Growing Degree Days 1 (Base 50)    
Moisture  
Dew Point 37 °F    
Average Humidity 62    
Maximum Humidity 72    
Minimum Humidity 45    
Precipitation  
Precipitation 0.00 in 0.10 in 0.89 in (1945)
Month to date precipitation 1.24  
Year to date precipitation 32.94  
Snow  
Snow 0.00 in 0.00 in 0.70 in (1911)
Month to date snowfall 0.1  
Since 1 July snowfall 0.1  
Since 1 September snowfall 0.1  
Snow Depth -    
Sea Level Pressure  
Sea Level Pressure 29.83 in    
Wind  
Wind Speed 15 mph (South)    
Max Wind Speed 25 mph    
Max Gust Speed 34 mph    
Visibility 10 miles    
Events      
T = Trace of Precipitation, MM = Missing Value Source: NWS Daily Summary

Daily Weather History Graph

Daily Weather History Graph

Search for Another Location

Airport:

Trip Planner

Search our weather history database for the weather conditions in past years. The results will help you decide how hot, cold, wet, or windy it might be!

Date:

Astronomy

Nov. 12, 2011 Rise Set
Actual Time 6:37 AM CST 4:44 PM CST
Civil Twilight 6:09 AM CST 5:13 PM CST
Nautical Twilight 5:36 AM CST 5:45 PM CST
Astronomical Twilight 5:05 AM CST 6:17 PM CST
Moon 6:01 PM CST (11/12) 8:19 AM CST (11/12)
Length of Visible Light 11h 04m
Length of Day
10h 07m
Full, 97% of the Moon is Illuminated
Nov 12
Full
Nov 18
Last Quarter
Nov 25
New
Dec 2
First Quarter
Dec 10
Full

Hourly Weather History & Observations

Time (CST) Temp. Windchill Dew Point Humidity Pressure Visibility Wind Dir Wind Speed Gust Speed Precip Events Conditions
12:15 AM 46.4 °F 40.1 °F 35.6 °F 66% 29.83 in 10.0 mi SSW 15.0 mph 20.7 mph N/A   Clear
12:35 AM 46.4 °F 40.4 °F 35.6 °F 66% 29.83 in 10.0 mi SSW 13.8 mph - N/A   Clear
12:55 AM 46.4 °F 40.1 °F 35.6 °F 66% 29.83 in 10.0 mi SSW 15.0 mph 19.6 mph N/A   Clear
1:15 AM 46.4 °F 40.4 °F 35.6 °F 66% 29.84 in 10.0 mi SSW 13.8 mph - N/A   Clear
1:35 AM 44.6 °F 38.4 °F 35.6 °F 71% 29.84 in 10.0 mi SSW 12.7 mph - N/A   Clear
1:55 AM 44.6 °F 38.8 °F 35.6 °F 71% 29.84 in 10.0 mi SSW 11.5 mph - N/A   Clear
2:15 AM 44.6 °F 39.7 °F 33.8 °F 66% 29.85 in 10.0 mi SSW 9.2 mph - N/A   Clear
2:35 AM 46.4 °F 41.1 °F 33.8 °F 62% 29.84 in 10.0 mi SW 11.5 mph - N/A   Clear
2:55 AM 46.4 °F 40.7 °F 33.8 °F 62% 29.84 in 10.0 mi SSW 12.7 mph - N/A   Clear
3:15 AM 44.6 °F 39.2 °F 33.8 °F 66% 29.84 in 10.0 mi SSW 10.4 mph - N/A   Clear
3:35 AM 42.8 °F 37.0 °F 33.8 °F 70% 29.85 in 10.0 mi South 10.4 mph - N/A   Clear
3:55 AM 42.8 °F 37.5 °F 33.8 °F 70% 29.86 in 10.0 mi South 9.2 mph - N/A   Clear
4:15 AM 42.8 °F 36.6 °F 33.8 °F 70% 29.85 in 10.0 mi South 11.5 mph - N/A   Clear
4:35 AM 42.8 °F 36.6 °F 33.8 °F 70% 29.86 in 10.0 mi South 11.5 mph - N/A   Clear
4:55 AM 42.8 °F 36.2 °F 33.8 °F 70% 29.86 in 10.0 mi South 12.7 mph - N/A   Clear
5:15 AM 42.8 °F 35.8 °F 33.8 °F 70% 29.87 in 10.0 mi South 13.8 mph - N/A   Clear
5:35 AM 42.8 °F 37.0 °F 33.8 °F 70% 29.88 in 10.0 mi South 10.4 mph - N/A   Clear
5:55 AM 42.8 °F 36.2 °F 33.8 °F 70% 29.88 in 10.0 mi South 12.7 mph - N/A   Clear
6:15 AM 42.8 °F 36.6 °F 33.8 °F 70% 29.88 in 10.0 mi South 11.5 mph - N/A   Clear
6:35 AM 42.8 °F 36.2 °F 33.8 °F 70% 29.88 in 10.0 mi South 12.7 mph - N/A   Clear
6:55 AM 42.8 °F 35.4 °F 33.8 °F 70% 29.88 in 10.0 mi South 15.0 mph - N/A   Clear
7:15 AM 42.8 °F 35.4 °F 33.8 °F 70% 29.88 in 10.0 mi South 15.0 mph - N/A   Clear
7:35 AM 44.6 °F 37.8 °F 33.8 °F 66% 29.87 in 10.0 mi South 15.0 mph - N/A   Clear
7:55 AM 44.6 °F 38.1 °F 33.8 °F 66% 29.88 in 10.0 mi South 13.8 mph - N/A   Clear
8:15 AM 46.4 °F 39.8 °F 33.8 °F 62% 29.88 in 10.0 mi South 16.1 mph 24.2 mph N/A   Clear
8:35 AM 46.4 °F 40.1 °F 35.6 °F 66% 29.89 in 10.0 mi South 15.0 mph 23.0 mph N/A   Clear
8:55 AM 48.2 °F - 35.6 °F 62% 29.88 in 10.0 mi South 15.0 mph 24.2 mph N/A   Clear
9:15 AM 50.0 °F - 37.4 °F 62% 29.88 in 10.0 mi South 18.4 mph 23.0 mph N/A   Clear
9:35 AM 51.8 °F - 37.4 °F 58% 29.88 in 10.0 mi South 16.1 mph 21.9 mph N/A   Clear
9:55 AM 53.6 °F - 37.4 °F 54% 29.88 in 10.0 mi South 17.3 mph 20.7 mph N/A   Clear
10:15 AM 55.4 °F - 39.2 °F 54% 29.88 in 10.0 mi South 13.8 mph - N/A   Clear
10:35 AM 57.2 °F - 39.2 °F 51% 29.87 in 10.0 mi South 16.1 mph - N/A   Clear
10:55 AM 57.2 °F - 37.4 °F 48% 29.86 in 10.0 mi South 17.3 mph 24.2 mph N/A   Clear
11:15 AM 59.0 °F - 39.2 °F 48% 29.85 in 10.0 mi South 16.1 mph 27.6 mph N/A   Clear
11:35 AM 57.2 °F - 37.4 °F 48% 29.84 in 10.0 mi South 17.3 mph 25.3 mph N/A   Clear
11:55 AM 60.8 °F - 39.2 °F 45% 29.83 in 10.0 mi South 16.1 mph 25.3 mph N/A   Clear
12:15 PM 60.8 °F - 39.2 °F 45% 29.82 in 10.0 mi South 15.0 mph - N/A   Clear
12:35 PM 60.8 °F - 39.2 °F 45% 29.81 in 10.0 mi South 17.3 mph - N/A   Clear
12:55 PM 60.8 °F - 39.2 °F 45% 29.80 in 10.0 mi SSE 18.4 mph 26.5 mph N/A   Clear
1:15 PM 59.0 °F - 39.2 °F 48% 29.79 in 10.0 mi South 16.1 mph 24.2 mph N/A   Clear
1:35 PM 57.2 °F - 41.0 °F 55% 29.78 in 10.0 mi South 18.4 mph 25.3 mph N/A   Clear
1:55 PM 57.2 °F - 39.2 °F 51% 29.78 in 10.0 mi South 18.4 mph 32.2 mph N/A   Clear
2:15 PM 55.4 °F - 39.2 °F 54% 29.76 in 10.0 mi South 20.7 mph 31.1 mph N/A   Clear
2:35 PM 55.4 °F - 37.4 °F 51% 29.77 in 10.0 mi South 25.3 mph 32.2 mph N/A   Clear
2:55 PM 55.4 °F - 39.2 °F 54% 29.76 in 10.0 mi South 23.0 mph 31.1 mph N/A   Clear
3:15 PM 55.4 °F - 39.2 °F 54% 29.76 in 10.0 mi South 23.0 mph 27.6 mph N/A   Clear
3:35 PM 53.6 °F - 39.2 °F 58% 29.75 in 10.0 mi South 24.2 mph 28.8 mph N/A   Clear
3:55 PM 53.6 °F - 42.8 °F 67% 29.75 in 10.0 mi South 20.7 mph 34.5 mph N/A   Clear
4:15 PM 53.6 °F - 42.8 °F 67% 29.74 in 10.0 mi South 18.4 mph 26.5 mph N/A   Clear
4:35 PM 53.6 °F - 42.8 °F 67% 29.74 in 10.0 mi South 21.9 mph 27.6 mph N/A   Clear
4:55 PM 53.6 °F - 44.6 °F 72% 29.73 in 10.0 mi South 19.6 mph 25.3 mph N/A   Clear
5:15 PM 53.6 °F - 44.6 °F 72% 29.73 in 10.0 mi South 20.7 mph 28.8 mph N/A   Clear
5:35 PM 55.4 °F - 46.4 °F 72% 29.72 in 10.0 mi South 24.2 mph 27.6 mph N/A   Clear
5:55 PM 55.4 °F - 46.4 °F 72% 29.72 in 10.0 mi South 23.0 mph 28.8 mph N/A   Clear
6:15 PM 55.4 °F - 46.4 °F 72% 29.71 in 10.0 mi South 21.9 mph 33.4 mph N/A   Clear
6:35 PM 55.4 °F - 46.4 °F 72% 29.71 in 10.0 mi South 23.0 mph 31.1 mph N/A   Clear
6:55 PM 55.4 °F - 48.2 °F 77% 29.70 in 10.0 mi South 20.7 mph 31.1 mph N/A   Clear
7:15 PM 55.4 °F - 48.2 °F 77% 29.70 in 10.0 mi South 23.0 mph 33.4 mph N/A   Mostly Cloudy
7:35 PM 57.2 °F - 48.2 °F 72% 29.70 in 10.0 mi South 21.9 mph 32.2 mph N/A   Overcast
7:55 PM 57.2 °F - 48.2 °F 72% 29.70 in 10.0 mi South 21.9 mph 31.1 mph N/A   Mostly Cloudy
8:15 PM 57.2 °F - 48.2 °F 72% 29.70 in 10.0 mi South 21.9 mph 32.2 mph N/A   Mostly Cloudy
8:35 PM 57.2 °F - 48.2 °F 72% 29.71 in 10.0 mi South 26.5 mph 31.1 mph N/A   Mostly Cloudy
8:55 PM 57.2 °F - 48.2 °F 72% 29.70 in 10.0 mi South 21.9 mph 32.2 mph N/A   Mostly Cloudy
9:15 PM 57.2 °F - 48.2 °F 72% 29.70 in 10.0 mi South 23.0 mph 32.2 mph N/A   Scattered Clouds
9:35 PM 55.4 °F - 48.2 °F 77% 29.69 in 10.0 mi South 21.9 mph 29.9 mph N/A   Mostly Cloudy
9:55 PM 55.4 °F - 48.2 °F 77% 29.69 in 10.0 mi South 23.0 mph 29.9 mph N/A   Scattered Clouds
10:15 PM 55.4 °F - 48.2 °F 77% 29.69 in 10.0 mi South 23.0 mph 32.2 mph N/A   Clear
10:35 PM 55.4 °F - 48.2 °F 77% 29.68 in 10.0 mi South 24.2 mph 31.1 mph N/A   Clear
10:55 PM 55.4 °F - 48.2 °F 77% 29.67 in 10.0 mi South 21.9 mph 29.9 mph N/A   Clear
11:15 PM 55.4 °F - 48.2 °F 77% 29.66 in 10.0 mi South 19.6 mph 25.3 mph N/A   Clear
11:35 PM 55.4 °F - 48.2 °F 77% 29.65 in 10.0 mi South 19.6 mph 27.6 mph N/A   Clear
11:55 PM 55.4 °F - 48.2 °F 77% 29.65 in 10.0 mi South 21.9 mph 28.8 mph N/A   Clear